Terminal Aerodrome Forecast
Issued by NWS

Home | Current Version | Previous Version | Text Only | Print | Product List | Glossary On
Versions: 1 2 3 4 5 6 7 8 9 10 11 12 13 14 15 16
000
FTUS45 KVEF 061135
TAFVGT
TAF
KVGT 061135Z 0612/0712 10007KT P6SM SCT120 BKN250
     FM061600 15007KT P6SM FEW120 BKN250
     FM061900 20016G26KT P6SM FEW120 SCT250
     FM070400 20012KT P6SM FEW120=

USA.gov is the U.S. government's official web portal to all federal, state and local government web resources and services.